Springfield, OH

5:21 AM EST on January 18, 2018 (GMT -0500)
Springfield-Beckley Municipal

Weather History for KSGH - December, 2011

Change the Weather History Date:

Monday, December 12, 2011

  Actual Average (KFFO) Record (KFFO)
Temperature  
Mean Temperature 30 °F -  
Max Temperature 43 °F 40 °F 69 °F (2015)
Min Temperature 16 °F 26 °F 3 °F (2013)
Degree Days  
Heating Degree Days 36    
Moisture  
Dew Point 20 °F    
Average Humidity 75    
Maximum Humidity 96    
Minimum Humidity 42    
Precipitation  
Precipitation 0.00 in - - ()
Sea Level Pressure  
Sea Level Pressure 30.48 in    
Wind  
Wind Speed 3 mph (ESE)    
Max Wind Speed 6 mph    
Max Gust Speed -    
Visibility 8 miles    
Events      
Averages and records for this station are not official NWS values.
T = Trace of Precipitation, MM = Missing Value Source: NWS Daily Summary

Daily Weather History Graph

Daily Weather History Graph

Search for Another Location

Airport or City:

Trip Planner

Search our weather history database for the weather conditions in past years. The results will help you decide how hot, cold, wet, or windy it might be!

Date:

Astronomy

Dec. 12, 2011 Rise Set
Actual Time 7:47 AM EST 5:10 PM EST
Civil Twilight 7:16 AM EST 5:41 PM EST
Nautical Twilight 6:42 AM EST 6:15 PM EST
Astronomical Twilight 6:10 AM EST 6:47 PM EST
Moon 7:20 PM EST (12/12) 9:18 AM EST (12/12)
Length of Visible Light 10h 24m
Length of Day
9h 23m
Waning Gibbous, 96% of the Moon is Illuminated
Dec 12
Waning Gibbous
Dec 17
Last Quarter
Dec 24
New
Jan 1
First Quarter
Jan 9
Full

Hourly Weather History & Observations

Time (EST) Temp. Windchill Dew Point Humidity Pressure Visibility Wind Dir Wind Speed Gust Speed Precip Events Conditions
12:56 AM 17.1 °F 10.0 °F 14.0 °F 88% 30.49 in 8.0 mi ESE 4.6 mph - N/A   Clear
1:56 AM 17.1 °F 10.0 °F 14.0 °F 88% 30.48 in 9.0 mi ESE 4.6 mph - N/A   Clear
2:56 AM 16.2 °F 9.0 °F 13.1 °F 88% 30.49 in 8.0 mi East 4.6 mph - N/A   Clear
3:56 AM 16.2 °F 10.6 °F 13.1 °F 88% 30.48 in 9.0 mi ENE 3.5 mph - N/A   Clear
4:56 AM 16.2 °F 9.0 °F 13.1 °F 88% 30.48 in 9.0 mi East 4.6 mph - N/A   Clear
5:56 AM 17.1 °F 11.7 °F 13.1 °F 84% 30.48 in 9.0 mi NE 3.5 mph - N/A   Clear
6:56 AM 17.1 °F 11.7 °F 13.1 °F 84% 30.50 in 9.0 mi East 3.5 mph - N/A   Clear
7:56 AM 17.1 °F - 14.0 °F 88% 30.51 in 7.0 mi Calm Calm - N/A   Clear
8:56 AM 23.0 °F - 19.0 °F 85% 30.52 in 6.0 mi Calm Calm - N/A   Clear
9:56 AM 30.0 °F - 23.0 °F 75% 30.52 in 7.0 mi Calm Calm - N/A   Clear
10:56 AM 34.9 °F 32.0 °F 21.0 °F 57% 30.53 in 8.0 mi SSE 3.5 mph - N/A   Clear
11:56 AM 38.8 °F 36.5 °F 20.1 °F 47% 30.51 in 9.0 mi Variable 3.5 mph - N/A   Clear
12:56 PM 41.9 °F 40.0 °F 20.1 °F 42% 30.48 in 9.0 mi West 3.5 mph - N/A   Clear
1:56 PM 41.9 °F - 23.0 °F 47% 30.46 in 9.0 mi Calm Calm - N/A   Clear
2:56 PM 43.9 °F 40.5 °F 25.2 °F 48% 30.46 in 8.0 mi SW 5.8 mph - N/A   Clear
3:56 PM 43.9 °F 41.3 °F 26.1 °F 50% 30.45 in 8.0 mi SSW 4.6 mph - N/A   Clear
4:56 PM 38.8 °F 36.5 °F 26.1 °F 60% 30.46 in 9.0 mi South 3.5 mph - N/A   Clear
5:56 PM 34.0 °F - 26.1 °F 73% 30.46 in 9.0 mi Calm Calm - N/A   Clear
6:56 PM 34.9 °F 30.8 °F 26.1 °F 70% 30.46 in 9.0 mi SE 4.6 mph - N/A   Clear
7:56 PM 31.1 °F - 26.1 °F 82% 30.48 in 9.0 mi Calm Calm - N/A   Clear
8:56 PM 27.1 °F 20.7 °F 25.2 °F 92% 30.48 in 8.0 mi SE 5.8 mph - N/A   Clear
9:56 PM 25.2 °F - 23.0 °F 91% 30.47 in 8.0 mi Calm Calm - N/A   Clear
10:56 PM 25.2 °F 20.9 °F 24.1 °F 96% 30.47 in 7.0 mi East 3.5 mph - N/A   Clear
11:56 PM 26.1 °F - 25.2 °F 96% 30.48 in 7.0 mi Calm Calm - N/A   Clear